www.pogodaiklimat.ru

Погода и климат >> Архив погоды >> Вануату >> Санто-Пекоа


ПОГОДА в Санто-Пекоа

  • Прогноз погоды в Санто-Пекоа
  • Монитор погоды в Санто-Пекоа

АРХИВ ПОГОДЫ в Санто-Пекоа

Время (UTC), дата Ветер
(напр.,м/с)
 
Видим.   Явления Облачность Т
(С)
Тd
(С)
f
(%)
Тe
(С)
Тes
(С)
Комфортность P
(гПа)
Po
(гПа)
Тmin
(С)
Tmax
(С)
R
(мм)
R24
(мм)
S
(см)
15 13.09 Ю 3 20 км в посл. час дождь {ливн. осадки} 10/8 300 м
[Cu Sc As op]
+22.8 +22.2 96 +31 +31 очень
душно
1012.7 1007.6
18 13.09 Ю 4 20 км {ливн. осадки} 10/8 360 м
[Cu Sc As op]
+23.2 +21.7 91 +31 +31 очень
душно
1012.9 1007.8 4
21 13.09 Ю 3 20 км слаб. ливневой дождь 10/6 360 м
[Cu Sc As op]
+23.3 +21.8 91 +32 +32 очень
душно
1014.6 1009.5
00 14.09 Ю 4 20 км в посл. час дождь {ливн. осадки} 9/9 540 м
[Cu Sc]
+25.5 +21.8 80 +33 +34 очень
душно
1014.1 1009.0 +22.0 9
03 14.09 Ю 4 20 км в посл. час дождь {ливн. осадки} 9/5 540 м
[Cu Sc Ci sp]
+26.5 +16.4 54 +30 +34 душно 1012.1 1007.0
06 14.09 Ю 4 20 км {ливн. осадки} 10/6 360 м
[Cu Sc As trans]
+24.7 +21.4 82 +31 +31 очень
душно
1012.2 1007.1 0.1
09 14.09 Ю 3 20 км {ливн. осадки} 10/10 540 м
[Cu Sc]
+24.0 +21.3 85 +30 +30 очень
душно
1014.8 1009.7
12 14.09 Ю 4 20 км {ливн. осадки} 10/5 600 м
[Cu Sc As trans]
+24.0 +20.8 82 +30 +30 очень
душно
1015.4 1010.3 +27.3 0.0
15 14.09 Ю 2 20 км 10/10 600 м
[Cu Sc]
+24.2 +20.6 80 +30 +30 очень
душно
1014.1 1009.0
18 14.09 ЮВ 3 20 км 10/10 600 м
[Cu Sc]
+24.0 +21.6 86 +31 +31 очень
душно
1013.9 1008.8
21 14.09 ЮЗ 2 20 км 10/8 540 м
[Cu Sc As trans]
+23.9 +21.0 84 +30 +31 очень
душно
1016.1 1011.0
00 15.09 ЮВ 3 20 км 10/6 540 м
[Cu Sc As trans]
+25.0 +22.0 83 +32 +35 очень
душно
1015.9 1010.8 +22.8 0.1
03 15.09 ЮВ 4 20 км 5/5 540 м
[Cb cap Ci sp]
+26.7 +22.0 75 +34 +39 очень
душно
1013.6 1008.5
06 15.09 ЮВ 3 20 км 9/9 540 м
[Cu Sc]
+25.6 +22.0 81 +33 +33 очень
душно
1013.6 1008.5
09 15.09 ЮВ 4 20 км 8/8 540 м
[Cu Sc Ci sp]
+25.0 +21.6 81 +32 +32 очень
душно
1015.8 1010.7
12 15.09 Ю 4 20 км 10/10 540 м
[Cu Sc]
+25.0 +22.0 83 +32 +32 очень
душно
1016.3 1011.2
15 15.09 ЮВ 3 20 км 9/9 540 м
[Cu Sc]
+24.5 +21.5 83 +31 +31 очень
душно
1015.1 1010.0
18 15.09 ЮВ 5 20 км 10/10 540 м
[Cu Sc]
+24.5 +20.7 79 +30 +30 очень
душно
1015.5 1010.4
21 15.09 ЮВ 4 20 км мгла 10/5 540 м
[Cu Sc As trans]
+24.9 +20.0 74 +30 +31 душно 1017.6 1012.5
00 16.09 ЮВ 5 20 км 9/9 540 м
[Cu Sc]
+26.2 +20.5 71 +33 +34 очень
душно
1017.2 1012.1 +22.4
03 16.09 ЮВ 6 20 км 9/5 450 м
[Cu Sc As trans]
+25.8 +19.2 67 +31 +33 очень
душно
1015.7 1010.6
06 16.09 ЮВ 5 20 км 9/5 600 м
[Cu Sc As trans]
+24.5 +18.9 71 +29 +29 душно 1015.2 1010.1
09 16.09 ЮВ 6 20 км 8/5 600 м
[Cu Sc Cs]
+24.2 +18.7 71 +29 +29 душно 1017.0 1011.9
12 16.09 ЮВ 5 20 км 10/5 600 м
[Cu Sc Ac As]
+24.0 +19.0 74 +29 +29 душно 1016.5 1011.4 +27.1
15 16.09 ЮВ 5 20 км 10/10 600 м
[Cu Sc]
+24.0 +18.5 71 +28 +28 душно 1014.7 1009.6
18 16.09 ЮВ 5 20 км 10/10 540 м
[Cu Sc]
+24.2 +20.4 79 +30 +30 очень
душно
1014.8 1009.7
21 16.09 ЮВ 5 20 км 8/4 540 м
[Cu Sc Ac As]
+25.1 +20.9 78 +32 +32 очень
душно
1016.4 1011.3
00 17.09 ЮВ 5 20 км 8/8 600 м
[Cu Sc Ac As]
+26.3 +20.9 72 +33 +35 очень
душно
1016.3 1011.2 +23.5
03 17.09 ЮВ 5 20 км 8/8 600 м
[Cu Sc Ac trans]
+26.6 +20.9 71 +33 +35 очень
душно
1014.4 1009.3
06 17.09 ЮВ 4 20 км 9/3 600 м
[Cu Sc Ac trans]
+25.9 +20.9 74 +32 +33 очень
душно
1014.4 1009.3
09 17.09 ЮВ 4 20 км 8/4 600 м
[Cu Sc Ac trans]
+25.0 +21.1 79 +32 +32 очень
душно
1016.2 1011.1
12 17.09 В 3 20 км 5/5 600 м
[Cu Sc Ac trans]
+24.4 +20.9 81 +31 +31 очень
душно
1016.0 1010.9
15 17.09 ЮВ 3 20 км 5/5 600 м
[Cu Sc]
+24.1 +20.9 82 +30 +30 очень
душно
1015.0 1009.9
18 17.09 ЮВ 4 20 км 8/8 600 м
[Cu Sc Ac trans]
+24.7 +20.8 79 +31 +31 очень
душно
1015.5 1010.4
21 17.09 ЮВ 5 20 км 5/5 600 м
[Cu hum]
+26.4 +21.0 72 +33 +35 очень
душно
1016.8 1011.7
00 18.09 Ю 4 20 км 5/5 600 м
[Cu hum]
+27.4 +21.6 71 +35 +42 очень
душно
1015.6 1010.5 +23.4
03 18.09 ЮВ 3 20 км 5/5 600 м
[Cu hum]
+27.7 +21.6 69 +35 +41 очень
душно
1013.9 1008.8
06 18.09 ЮВ 3 20 км 6/6 600 м
[Cu Sc Ac trans Ci fib]
+26.5 +22.4 78 +35 +35 очень
душно
1014.0 1008.9
09 18.09 ЮВ 4 20 км 10/10 540 м
[Cu Sc]
+26.0 +24.3 90 +36 +36 очень
душно
1015.6 1010.5
12 18.09 ЮВ 4 20 км 10/10 600 м
[Cu Sc]
+25.9 +23.1 85 +35 +35 очень
душно
1015.6 1010.5 +29.4
15 18.09 ЮВ 5 20 км 8/8 600 м
[Cu med, cong]
+25.2 +23.8 92 +34 +34 очень
душно
1014.3 1009.2
18 18.09 ЮВ 5 20 км 8/8 540 м
[Cu Sc]
+25.2 +22.7 86 +33 +33 очень
душно
1014.5 1009.4
21 18.09 ЮВ 4 20 км осадки на расстоянии 9/9 540 м
[Cu Sc]
+25.2 +23.3 89 +34 +34 очень
душно
1016.3 1011.2
00 19.09 ЮВ 5 20 км 8/8 600 м
[Cu Sc]
+26.4 +22.9 81 +35 +37 очень
душно
1015.4 1010.3 +24.4 0.0
03 19.09 ЮВ 7 20 км 6/4 600 м
[Cu Sc Cs]
+27.7 +22.4 73 +36 +39 очень
душно
1013.5 1008.4
06 19.09 ЮВ 6 20 км 4/4 600 м
[Cu Sc Ci fib]
+26.8 +21.9 75 +35 +35 очень
душно
1013.8 1008.7
09 19.09 ЮВ 4 20 км 4/4 600 м
[Cu Sc]
+25.8 +21.6 78 +33 +33 очень
душно
1015.0 1009.9
12 19.09 ЮВ 6 20 км 8/8 600 м
[Cu Sc Ac As]
+25.2 +21.9 82 +32 +32 очень
душно
1014.9 1009.8 +28.9
15 19.09 ЮВ 4 20 км 9/4 600 м
[Cu Sc Ac As]
+25.1 +21.5 80 +32 +32 очень
душно
1014.3 1009.2
18 19.09 ЮВ 6 20 км 9/4 600 м
[Cu Sc Ac As]
+24.8 +20.6 77 +31 +31 очень
душно
1014.1 1009.0
21 19.09 ЮВ 5 20 км 8/8 540 м
[Cu Sc Ac trans]
+26.2 +21.4 75 +33 +34 очень
душно
1015.5 1010.4
00 20.09 ЮВ 4 20 км 8/5 540 м
[Cu Sc Ac trans Ci fib]
+27.5 +21.9 72 +36 +40 очень
душно
1015.4 1010.3 +24.6
03 20.09 ЮВ 5 20 км в посл. час дождь 9/9 540 м
[Cu Sc]
+26.7 +22.4 77 +35 +36 очень
душно
1013.7 1008.6
06 20.09 ЮВ 5 20 км 9/9 300 м
[Cu Sc]
+26.5 +20.1 68 +33 +33 очень
душно
1013.7 1008.6 0.1
09 20.09 ЮВ 4 20 км 9/9 600 м
[Cu Sc]
+25.8 +20.7 73 +32 +32 очень
душно
1015.3 1010.2

 

Местоположение метеостанции Санто-Пекоа (Вануату): широта -15.51 долгота 167.21 высота над уровнем моря 44 м.

В архиве по умолчанию представлена погода в Санто-Пекоа за последнюю неделю. Архивные данные за месяц целиком и за предыдущие месяцы, начиная с января 2011 года, Вы можете получить, выбрав интересующий диапазон дат из раскрывающегося списка и нажав кнопку "Ввод!".


*Определитесь, кто Вы:
робот инопланетянин человек

Внимание! Время в таблицах - всемирное. Для получения местного времени необходимо прибавить поправку, которая равна 11 ч.

Смотрите также архив погоды в соседних городах и на ближайших метеорологических станциях:

Погода в Саратамате (Вануату) (45 км)
Погода в Ламапе (Вануату) (118 км)
Погода в Соле (Вануату) (188 км)
Погода на Линуа (Вануату) (252 км)
Погода в Порт-Виле (Вануату) (270 км)
Погода на Эроманге (Вануату) (402 км)
Погода в Уайт Грасс (Вануату) (487 км)
Погода на Острове Сюрприз (Новая Каледония) (550 км)
Погода на Островах Санта-Круз (Соломоновы Острова) (556 км)
Погода на Острове Увеа (Новая Каледония) (576 км)

Пояснения к столбцам:

Ветер - указаны скорость ветра в м/с - средняя за 10 мин, порывы в срок и между сроками (в фигурных скобках) и направление, откуда дует ветер: С - северный, СВ - северо-восточный, В - восточный, ЮВ - юго-восточный, Ю - южный, ЮЗ - юго-западный, З - западный, СЗ - северо-западный.
Видимость - горизонтальная дальность видимости в метрах или километрах. При видимости от 1 до 10 км при отсутствии осадков обычно наблюдается дымка, при ухудшении видимости до 1 км и менее - туман. В сухую погоду видимость может ухудшаться дымом, пылью или мглою.
Явления - указаны атмосферные явления, наблюдавшиеся в срок или в последний час перед сроком; фигурными скобками обозначены явления, наблюдавшиеся между сроками (за 1-3 часа до срока); квадратными скобками обозначены град или гололедные отложения с указанием их диаметра в мм.
Облачность - указаны через наклонную черту общая и нижняя облачность в баллах и высота нижней границы облаков в метрах; квадратными скобками обозначены формы облаков: Ci - перистые, Cs - перисто-слоистые, Cc - перисто-кучевые, Ac - высококучевые, As - высокослоистые, Sc - слоисто-кучевые, Ns - слоисто-дождевые, Cu - кучевые, Cb - кучево-дождевые. Подробнее классификацию облаков см. в Атласе облаков (PDF).
T - Температура воздуха - температура, измеренная на высоте 2 м над землей.
Td - Температура точки росы - температура, при понижении до которой содержащийся в воздухе водяной пар достигнет насыщения.
f - Относительная влажность воздуха - влажноcть воздуха, измеренная на высоте 2 м над землей.
Te - Эффективная температура - температура, которую ощущает одетый по сезону человек в тени. Характеристика душности погоды. При расчете учитывается влияние влажности воздуха и скорости ветра на теплоощущения человека.
Tes - Эффективная температура на солнце - температура, которую ощущает человек, с поправкой на солнечный нагрев. Характеристика знойности погоды. Зависит от высоты солнца над горизонтом, облачности и скорости ветра. Ночью, в пасмурную погоду, а также при ветре 12 м/с и более поправка равна нулю.
P - Атмосферное давление - приведенное к уровню моря атмосферное давление.
Po - Атмосферное давление - измеренное на уровне метеостанции атмосферное давление.
Tmin - Минимальная температура - минимум температуры воздуха на высоте 2 м над землей.
Tmax - Максимальная температура - максимум температуры воздуха на высоте 2 м над землей.
R - Количество осадков - Количество выпавших осадков за период времени, мм. При наведении курсора мыши на число - период времени, за который выпало указанное количество осадков.
R24 - Количество осадков - Количество выпавших осадков за 24 часа, мм.
S - Снежный покров - Высота снежного покрова, см. При наведении курсора мыши на число - состояние снежного покрова и степень покрытия местности в баллах.